Regional Weather Roundup
Issued by NWS Midland/Odessa, TX

Skip options and go directly to product.
Home | Oldest Version | Previous Version | Current Version | All | Graphics & Text | Save Text | Print | Product List | Glossary On

Skip product version selection by date and time.   
493
ASUS44 KMAF 301810
RWRMAF
MIDLAND AREA WEATHER ROUNDUP
NATIONAL WEATHER SERVICE MIDLAND TX
100 PM CDT FRI SEP 30 2016

...IN SOUTHWEST TEXAS AND SOUTHEAST NEW MEXICO...

CITY           SKY/WX    TMP DP  RH WIND       PRES   REMARKS
ALPINE         MOSUNNY   72  57  58 SW3       30.35F
ANDREWS        FAIR      71  50  46 S9        30.27F
ARTESIA        CLOUDY    68  55  64 SE16      30.24F
BIG SPRING     MOSUNNY   73  52  47 S6        30.29F
CARLSBAD       CLOUDY    68  54  60 S10       30.25F
DRYDEN           N/A     72  52  49 E8        30.23F
FORT STOCKTON  SUNNY     77  56  48 S8        30.24F
GUAD PASS      LGT RAIN  59  53  80 CALM      30.36F
HOBBS          SUNNY     72  50  46 SE14      30.28F
MARFA          CLOUDY    67  56  67 S5        30.34F
MIDLAND AIRPK  SUNNY     76  45  32 S8        30.27F
MIDLAND INTL   SUNNY     75  48  38 S9        30.26F
ODESSA         SUNNY     75  48  38 S8        30.27F
PECOS          CLOUDY    75  56  51 CALM      30.23F
PRESIDIO       CLOUDY    77  59  53 CALM      30.21F
SEMINOLE       SUNNY     71  50  47 S13       30.27F
SNYDER           N/A     70  50  49 SW3       30.26F
WINK           MOSUNNY   75  50  41 SE13      30.23F
$$
...OTHER STATIONS IN TEXAS...

CITY           SKY/WX    TMP DP  RH WIND       PRES   REMARKS
ABILENE        SUNNY     73  50  44 VRB6      30.25F
AMARILLO       SUNNY     75  48  38 S17G25    30.22F
AUSTIN         MOSUNNY   78  51  38 NE7       30.20F
BROWNSVILLE    MOSUNNY   88  69  53 NE9       30.10F
CORPUS CHRISTI MOSUNNY   83  54  36 NE9       30.15F
DALLAS FTW     MOSUNNY   77  48  35 E3        30.19F
DEL RIO        SUNNY     75  54  47 SE8       30.22F
EL PASO        PTSUNNY   68  59  73 SE6       30.27F
HOUSTON INT    MOSUNNY   78  52  40 NE8       30.17F
LUBBOCK        CLOUDY    74  47  38 S9        30.25F
SAN ANGELO     SUNNY     73  52  47 CALM      30.25F
SAN ANTONIO    MOSUNNY   75  52  44 VRB5      30.21F
WACO           SUNNY     78  50  37 VRB5      30.20F
WICHITA FALLS  NOT AVBL
$$
...OTHER LOCATIONS IN NEW MEXICO...

CITY           SKY/WX    TMP DP  RH WIND       PRES   REMARKS
ALAMAGORDO     MOSUNNY   66  59  77 CALM      30.29F
ALBUQUERQUE    MOSUNNY   69  51  52 NE3       30.33F
CANNON AFB     SUNNY     75  50  41 W15G21    30.24F
CLOVIS         SUNNY     75  52  43 SW14G22   30.25F
HOLLOMAN AFB   MOSUNNY   67  61  81 S3        30.26F
ROSWELL        CLOUDY    70  52  52 SE9       30.24F
RUIDOSO        CLOUDY    63  54  72 NW5       30.39F
SANTA FE       SUNNY     71  48  43 SW10      30.33F
TRUTH OR CONSE SUNNY     69  55  60 S6        30.29F
TUCUMCARI      MOSUNNY   80  50  34 SW16G23   30.19F
$$